Regional Weather Roundup
Issued by NWS

Home | Current Version | Previous Version | Text Only | Print | Product List | Glossary Off
Versions: 1 2 3 4 5 6 7 8 9 10 11 12 13 14 15 16 17 18 19 20 21 22 23 24 25 26 27 28 29 30 31 32 33 34 35 36 37 38 39 40 41 42 43 44 45 46 47 48 49 50

000
ASUS43 KFSD 170402
RWRSD

WEATHER ROUNDUP FOR SOUTH DAKOTA
NATIONAL WEATHER SERVICE SIOUX FALLS SD
1000 PM CST TUE JAN 16 2018

NOTE: "FAIR" INDICATES FEW OR NO CLOUDS BELOW 12,000 FEET WITH NO
SIGNIFICANT WEATHER AND/OR OBSTRUCTIONS TO VISIBILITY.


SDZ001>005-009-010-012>017-170500-
NORTHWEST AND NORTH CENTRAL SOUTH DAKOTA

CITY           SKY/WX    TMP DP  RH WIND       PRES   REMARKS
BUFFALO          N/A      4  -3  73 SW5       30.09F WCI  -5
FAITH            N/A      4   0  83 S21       30.20F WCI -17
MOBRIDGE       PTCLDY     8   0  69 SE10      30.28F WCI  -6
$$

SDZ012>016-024>037-041>051-057-063-072>074-170500-
SOUTHWEST AND SOUTH CENTRAL SOUTH DAKOTA

CITY           SKY/WX    TMP DP  RH WIND       PRES   REMARKS
RAPID CTY ARPT PTCLDY    16   6  65 SE6       30.19F WCI   7
PIERRE         CLEAR      7   1  76 SE9       30.34F WCI  -7
CUSTER         CLEAR     21 -12  22 W3        30.16F
ELLSWORTH AFB  PTCLDY    19   5  55 S5        30.17F WCI  12
PHILIP         CLEAR     10   4  76 CALM      30.28F
PINE RIDGE     CLEAR     20   7  57 SW10      30.26F WCI   9
SPEARFISH        N/A     25   5  42 CALM      30.15S
WINNER         FAIR      15   2  56 S16       30.36F WCI  -1
$$

SDZ004>011-016>023-039-040-170500-
NORTHEAST SOUTH DAKOTA

CITY           SKY/WX    TMP DP  RH WIND       PRES   REMARKS
ABERDEEN       CLEAR      3  -3  76 S13       30.42F WCI -14
WATERTOWN      CLOUDY    -1  -5  82 S12       30.42F WCI -18
BROOKINGS      CLOUDY    -2  -6  83 S10       30.47F WCI -19
SISSETON         N/A      8  -2  63 VRB3      30.42F
$$

SDZ017-020-022-023-036>040-048>070-170500-
SOUTHEAST SOUTH DAKOTA

CITY           SKY/WX    TMP DP  RH WIND       PRES   REMARKS
SIOUX FALLS    CLEAR      2  -2  83 S6        30.53S WCI  -9
HURON          CLEAR      2  -3  80 S9        30.47F WCI -13
CHAMBERLAIN    CLEAR     10   2  70 SE5       30.40F WCI   2
MITCHELL       CLEAR      5  -2  72 S12       30.49F WCI -11
YANKTON        CLEAR      2  -3  80 S7        30.55F WCI -11
$$

ABBREVIATIONS USED IN REMARKS
   TC - TEMPERATURE IN CELSIUS
  WCI - WIND CHILL INDEX
   HX - HEAT INDEX
  VSB - VISIBILITY




USA.gov is the U.S. government's official web portal to all federal, state and local government web resources and services.